Location: Unspecified
(47.6577°N, 23.5639°E)
Time: 23:28:38
(UTC+03:00)

ISS - Pass Details

Date: 30 January 2017
Orbit: 400 x 408 km, 51.6° (Epoch: 27 July)

Event Time Altitude Azimuth Distance (km) Brightness Sun altitude
Rises 20:14:44 0° 254° (WSW) 2,333 1.1 -28.8°
Reaches altitude 10° 20:16:50 10° 258° (WSW) 1,470 -0.2 -29.2°
Enters shadow 20:17:31 15° 260° (W) 1,200 -0.7 -29.3°
